Vorticity
6 6 6 5 4 4 8 9 6 7 6 5 6 5 5 7 7 8 10 8 7 6 6 7 7 8 7 7 8 8 7 8 7 6 6 3 3 5 5 5 3 6 7 7 6 5 5 6 5 3 4 4 4 5 5 5 4 5 6 6 7 4 3 4 4 4 4 4 4 3 4 5 6 6 6 5 5 5 5 7 6 6 6 5 6 5 6 6 6 6 7 8 7 8 8 6 5
4 5 6 6 5 4 8 11 6 5 7 5 6 6 6 8 8 8 8 8 9 8 7 7 7 7 6 5 6 6 6 8 7 5 6 4 3 4 5 6 6 6 6 7 5 5 5 5 6 5 5 5 5 5 4 5 4 2 2 3 5 7 5 5 7 6 4 5 4 3 5 6 7 7 5 6 6 7 7 7 7 5 5 6 6 6 5 5 5 5 6 7 8 9 8 6 5
4 4 5 6 6 5 7 8 5 6 8 5 4 7 7 7 9 9 7 7 9 9 8 7 6 5 4 5 6 6 6 7 9 7 7 5 4 4 5 5 5 5 5 6 5 5 5 5 5 5 6 5 4 4 4 5 5 3 3 3 2 4 6 6 6 7 8 8 6 5 6 8 8 6 6 7 8 8 8 7 7 6 6 7 6 6 5 4 5 5 6 7 9 10 7 5 4
6 4 5 5 6 6 8 7 5 6 8 7 4 5 7 6 9 9 8 8 7 7 8 7 7 6 4 5 6 7 7 8 10 9 6 6 6 5 5 4 4 4 5 4 4 5 4 5 6 6 6 4 4 4 4 5 4 4 5 5 2 2 4 4 2 5 9 9 8 8 8 9 7 6 6 8 8 7 7 7 7 7 6 6 6 5 5 5 6 7 9 10 9 8 6 5 5
7 5 4 4 5 7 8 7 6 8 8 8 5 3 5 6 8 9 8 7 5 5 7 9 9 8 5 4 6 8 9 9 10 11 9 7 7 6 6 5 5 5 5 6 6 6 6 7 7 6 5 4 4 4 5 6 5 4 5 5 4 4 3 5 4 4 7 7 9 9 8 9 7 6 7 7 8 7 6 6 7 6 6 6 6 4 5 7 6 7 10 11 9 7 6 6 5
9 5 4 4 4 8 7 5 5 9 11 9 7 4 3 6 7 8 8 8 6 4 5 8 8 6 6 6 8 9 9 9 9 11 11 9 8 8 8 7 7 7 8 9 9 9 9 7 7 6 4 3 4 4 4 6 6 4 5 4 3 3 5 7 7 6 8 7 7 7 7 7 6 6 7 7 7 7 6 7 7 6 6 6 5 3 5 7 6 8 9 10 10 8 6 6 5
12 7 5 5 1 8 8 5 5 7 11 9 8 6 3 7 8 9 10 9 8 6 5 8 10 8 8 8 9 9 8 9 9 10 10 9 8 8 8 9 8 8 8 9 10 10 9 7 6 5 5 6 5 4 5 8 6 3 4 4 2 4 6 6 6 6 6 5 4 4 6 6 6 7 7 7 6 6 6 7 7 6 6 5 5 4 4 6 7 8 8 8 9 8 5 4 5
13 9 6 5 1 7 8 6 7 6 8 9 9 7 4 6 8 10 11 10 9 9 7 7 12 10 8 8 9 8 7 7 7 8 8 6 5 5 6 6 6 6 5 6 7 7 7 7 6 6 6 7 7 5 7 9 6 4 5 4 5 5 3 4 6 6 4 4 4 3 5 6 6 6 7 7 6 5 6 7 7 6 7 5 4 5 5 6 7 7 8 9 8 6 4 4 5
9 8 4 4 4 5 7 6 7 6 5 6 8 7 6 5 7 9 10 10 9 9 7 6 9 9 8 7 7 6 5 6 6 6 5 4 4 4 4 4 4 4 4 4 5 6 6 7 7 8 6 6 7 6 7 7 5 5 4 4 6 3 3 7 6 4 4 3 4 4 4 6 6 6 6 7 6 6 7 7 6 6 6 5 4 6 6 7 8 6 8 10 8 5 5 5 4
5 6 3 4 6 4 5 5 6 7 5 4 5 6 6 5 7 8 9 10 10 10 8 6 8 9 7 5 5 5 4 4 4 5 4 5 6 6 6 5 5 4 5 5 5 5 5 7 7 7 7 7 5 4 6 6 6 5 4 5 6 4 3 5 4 2 2 3 4 4 3 6 7 6 6 7 6 5 7 7 6 6 6 5 4 6 7 7 7 6 7 10 9 6 5 5 3
4 4 4 5 7 6 4 4 6 7 6 4 3 5 7 6 7 8 7 9 9 8 7 7 7 8 8 6 5 4 4 3 3 4 5 6 6 7 7 6 7 7 6 6 5 5 5 7 7 7 6 6 5 5 7 7 7 6 6 7 6 6 5 4 5 4 3 4 4 4 4 5 6 7 6 6 6 5 6 7 7 7 5 4 5 6 7 7 6 6 8 9 8 7 6 5 4
5 4 5 7 8 8 5 3 4 6 7 5 2 4 6 6 5 5 6 8 8 5 5 8 8 7 7 6 5 4 3 3 3 4 5 5 5 5 6 6 6 6 6 6 6 6 6 8 8 8 7 7 6 5 5 5 6 5 5 7 5 5 7 6 7 7 6 7 6 6 7 6 6 7 6 5 6 6 5 6 7 5 4 4 5 7 8 7 5 6 8 9 7 6 6 5 5
5 3 4 8 8 8 5 3 5 6 7 6 3 3 4 7 5 3 4 7 10 8 5 6 8 9 9 6 6 6 4 3 4 4 5 5 5 5 5 5 6 6 6 6 8 8 7 8 8 7 7 7 6 5 4 4 6 7 7 7 6 6 6 7 7 7 8 9 10 10 10 9 9 8 7 6 5 6 5 6 7 5 4 4 5 8 8 6 5 6 8 9 7 6 5 5 6
5 3 4 7 6 7 6 3 6 8 7 6 4 4 3 5 5 3 5 7 11 10 7 5 6 9 9 8 8 6 5 4 4 4 6 6 5 5 6 8 8 8 8 6 7 8 7 6 6 6 6 7 7 5 6 7 7 7 9 8 6 7 7 7 6 6 8 8 7 10 10 10 12 10 7 6 5 6 6 5 6 5 4 5 6 8 7 6 5 6 9 9 6 5 5 5 7
4 4 4 5 6 6 6 2 4 6 7 8 4 4 4 4 6 6 6 7 8 7 6 5 5 7 8 10 10 6 5 4 4 5 7 7 5 7 9 10 9 8 7 5 5 5 5 4 5 7 7 8 9 7 6 8 6 6 8 8 7 7 7 8 7 7 10 9 7 8 8 8 12 11 7 7 6 5 7 6 5 5 5 5 7 8 6 5 5 7 9 9 6 4 5 5 7
4 7 5 4 4 2 3 2 5 5 4 10 7 3 4 4 5 6 7 6 7 8 6 5 5 4 6 11 11 7 6 5 5 6 7 8 8 9 9 8 7 7 6 5 6 6 6 5 5 7 7 6 8 8 6 7 7 7 7 7 8 8 7 7 6 7 9 8 7 6 6 9 11 10 7 7 6 5 7 6 5 5 5 5 7 7 5 5 5 7 10 9 5 4 5 6 6
4 9 8 6 5 2 2 1 8 7 -0 7 9 5 5 6 5 4 8 7 6 9 7 6 6 5 4 8 13 10 6 6 4 5 7 8 9 9 6 5 6 6 6 5 5 7 7 6 5 6 7 7 7 8 8 8 7 6 7 9 8 8 8 6 7 8 7 7 7 6 10 10 8 9 8 8 7 6 7 6 6 5 4 6 7 6 5 5 6 8 11 9 5 4 5 6 6
2 6 7 6 6 4 3 1 6 7 1 4 7 7 4 5 7 2 7 9 5 8 9 7 6 7 5 4 12 13 6 6 5 6 7 8 9 6 4 3 5 6 6 5 5 6 6 7 6 6 7 8 8 8 8 8 8 7 9 13 12 11 11 9 9 8 7 8 7 7 12 11 8 9 9 8 7 6 7 6 6 4 3 6 7 6 5 5 7 9 10 8 5 4 6 6 8
2 5 4 3 6 5 4 4 3 4 3 2 5 10 5 2 8 3 4 10 5 6 8 7 7 6 5 4 9 12 7 6 6 6 7 7 7 5 5 5 6 7 6 7 6 6 6 6 7 7 7 8 7 7 7 8 10 11 9 13 15 14 15 13 11 9 8 9 8 9 11 11 9 8 9 10 8 7 8 7 6 4 3 6 6 5 5 6 9 10 10 8 6 5 6 8 9
2 4 3 2 6 5 4 4 3 4 3 2 3 9 8 1 6 7 4 9 7 3 5 6 9 7 5 4 8 12 8 6 6 6 6 6 7 6 6 7 6 6 6 7 7 6 5 5 7 8 8 7 6 6 7 8 10 10 9 11 14 13 15 16 14 13 13 12 12 11 11 11 10 9 10 10 9 8 7 6 7 4 4 7 5 4 5 8 9 9 9 7 6 6 7 8 8
1 3 2 2 4 4 4 5 4 3 2 3 3 7 12 3 4 13 5 5 9 4 5 7 10 9 7 5 6 12 9 5 5 5 7 6 7 7 6 8 6 4 5 7 6 5 5 7 8 9 8 6 7 7 7 7 9 10 10 11 13 12 13 14 14 13 14 14 12 11 10 10 11 12 11 10 11 11 9 7 6 4 5 6 5 5 6 8 9 9 8 7 7 7 8 8 6
2 2 1 2 3 2 3 4 2 3 3 2 1 5 13 5 3 15 7 1 9 7 5 6 8 11 10 7 5 10 9 5 6 4 6 6 6 7 6 8 6 4 5 6 6 7 8 8 9 8 8 8 9 9 8 9 10 10 11 12 13 12 12 12 11 12 13 12 12 13 13 11 12 12 10 9 11 12 11 8 5 5 6 6 5 6 6 8 9 9 7 8 8 7 7 6 5
6 2 1 2 2 2 2 2 1 2 3 -0 0 2 9 7 3 15 11 2 9 8 5 5 6 10 9 8 7 8 7 5 5 5 4 6 5 5 6 7 7 6 6 6 6 8 9 9 9 9 8 10 11 9 9 11 10 10 10 12 12 11 13 13 11 13 12 12 11 11 11 12 13 10 8 10 11 12 12 7 5 6 7 7 6 6 7 9 9 8 8 8 8 7 6 5 6
9 6 4 3 1 2 0 1 2 2 4 0 0 2 5 8 5 14 13 4 9 7 4 5 5 8 7 6 8 7 7 6 5 5 5 5 5 5 6 7 7 7 6 6 7 8 9 9 9 9 9 11 13 10 9 10 9 8 10 11 12 11 12 12 11 12 11 9 8 8 9 10 11 10 11 12 12 13 11 6 6 8 8 7 6 6 8 9 9 9 8 8 7 6 4 4 7
8 8 7 5 3 2 1 1 1 1 4 1 2 5 6 11 11 15 16 6 7 9 5 5 3 6 6 4 7 7 7 8 5 5 5 6 6 5 6 7 7 6 5 7 9 9 9 10 10 10 10 10 12 11 10 9 7 8 11 12 12 12 11 11 10 11 10 9 9 9 10 11 12 12 11 11 13 13 9 6 7 8 7 7 6 7 8 9 9 8 7 6 5 4 3 6 9
5 7 6 7 5 5 5 3 4 4 3 4 4 4 6 16 16 13 16 9 5 8 6 6 4 4 6 5 7 8 8 8 5 5 6 6 6 6 7 7 7 5 6 9 10 9 9 9 10 11 11 10 11 12 11 9 8 10 12 11 12 13 12 10 10 10 10 11 11 11 12 14 18 20 18 16 14 11 7 7 9 8 6 6 6 7 8 9 8 8 6 4 3 4 5 8 10
5 5 5 6 5 7 8 6 9 8 7 9 5 11 18 18 18 14 11 7 5 9 7 6 5 4 6 6 6 8 8 8 6 5 5 5 6 6 6 7 6 6 7 10 11 9 9 8 9 11 11 10 10 11 10 9 8 10 11 9 11 12 12 11 10 10 10 10 10 10 11 13 16 19 19 16 13 9 8 9 8 7 7 6 6 8 8 9 8 5 4 3 3 6 9 10 10
5 6 6 6 5 5 6 7 11 13 14 10 6 29 40 19 16 19 9 4 6 8 7 6 5 5 6 6 6 7 7 8 6 5 5 5 6 6 6 7 6 6 7 11 11 9 8 8 9 11 11 10 10 10 9 8 8 9 9 8 8 9 10 10 10 9 10 10 9 10 11 11 11 12 12 11 10 9 8 8 6 6 7 7 7 8 8 7 6 4 3 4 6 9 11 10 8
6 8 7 6 8 7 7 7 10 16 14 9 10 19 29 27 21 11 3 6 8 7 8 7 4 4 6 6 6 6 6 7 6 5 5 5 6 7 7 7 6 6 7 11 11 8 7 7 8 9 10 9 9 9 9 8 8 9 8 7 7 7 8 9 9 9 10 10 10 10 10 10 9 9 10 9 8 8 7 6 6 7 7 8 9 8 6 5 3 4 5 6 8 11 11 9 7
7 10 10 9 11 10 10 8 11 18 9 12 21 8 20 45 29 2 2 9 8 6 8 8 6 3 4 7 7 6 5 7 7 6 5 5 6 7 7 7 7 6 7 11 11 8 7 6 8 8 8 9 8 8 8 8 9 9 9 8 8 9 9 8 9 9 9 10 11 10 10 9 9 8 7 7 6 6 5 6 7 8 9 9 8 6 4 4 4 5 7 8 10 11 11 8 6
6 8 11 9 7 6 8 7 12 17 5 8 19 15 31 41 16 -1 5 10 7 6 9 7 5 4 4 7 7 6 6 6 8 7 6 6 6 7 7 7 7 6 7 10 10 8 7 6 7 8 7 8 8 7 7 7 8 9 9 9 10 11 10 9 9 9 8 9 10 11 10 9 9 8 6 6 6 5 6 7 9 10 9 7 5 4 4 4 5 7 7 8 10 11 9 7 6
7 4 6 8 7 7 10 11 13 12 6 11 17 24 31 16 3 5 6 10 9 4 8 8 5 4 4 6 7 6 6 5 5 7 7 6 6 6 6 7 7 6 7 9 10 8 7 6 7 7 8 7 7 7 6 6 7 8 9 9 10 10 10 10 9 10 9 8 10 10 9 8 7 7 6 5 4 5 7 8 10 10 7 5 4 4 5 5 6 7 7 9 10 9 8 6 5
10 5 1 6 7 7 12 13 14 9 6 14 17 20 16 1 2 8 6 11 10 4 7 7 6 5 4 5 6 6 6 6 4 6 7 6 5 5 5 7 7 7 8 9 9 8 7 6 7 7 7 8 7 7 7 7 7 8 9 8 9 9 9 10 10 11 11 9 9 10 9 7 6 5 5 5 5 6 8 10 10 8 5 4 5 5 5 6 7 7 7 9 10 8 6 5 5
12 9 1 2 5 5 8 12 15 9 6 13 13 8 4 2 3 3 4 11 9 6 7 6 6 5 5 5 5 6 6 6 5 4 6 6 5 5 5 6 7 7 8 10 9 8 7 7 7 7 8 8 8 8 7 7 8 8 9 9 9 9 9 9 10 11 13 12 10 10 10 7 5 5 5 5 7 9 11 11 8 5 5 5 5 5 5 6 7 7 8 9 9 7 5 4 5
8 12 8 4 5 4 3 8 13 7 4 13 14 6 0 1 2 -1 2 8 10 9 6 6 7 5 5 4 4 6 6 6 6 4 5 6 6 5 5 5 7 8 7 9 9 7 7 7 7 7 8 9 9 9 9 9 9 9 9 9 9 10 9 9 9 9 10 11 10 9 10 9 7 6 7 8 10 12 11 9 6 4 5 5 4 5 5 7 7 8 9 9 9 8 7 6 6
4 4 8 5 6 9 6 6 12 8 4 10 10 7 7 5 2 1 3 6 10 12 9 7 7 7 5 4 3 4 6 6 5 5 4 5 7 6 4 4 6 8 8 8 8 7 7 7 7 8 8 9 10 9 10 9 9 9 8 9 10 10 10 10 9 9 9 9 9 9 8 8 8 8 9 11 12 12 9 5 4 5 4 3 4 4 5 7 7 8 9 10 10 10 10 7 5
3 -2 2 5 7 13 12 7 8 8 6 7 7 7 11 9 3 3 5 7 11 12 12 10 8 7 6 4 4 3 5 6 6 6 5 5 6 6 5 4 5 8 9 7 8 9 7 7 7 8 8 10 11 11 9 8 7 8 8 8 8 9 10 10 11 11 10 10 9 9 9 8 9 10 11 12 11 9 5 4 4 4 3 3 4 4 4 5 6 7 9 10 11 11 10 7 6
8 4 0 -1 3 8 11 8 4 8 9 7 6 5 7 7 4 5 5 5 10 11 9 10 9 6 6 6 4 4 4 4 6 6 6 5 5 5 6 5 4 7 8 6 8 9 7 6 7 8 9 10 12 11 9 8 6 6 6 6 7 8 8 9 10 12 11 12 12 11 11 11 11 12 11 10 9 6 3 4 5 4 3 3 4 4 4 5 6 7 8 11 11 9 9 8 7
6 9 5 2 5 2 7 12 2 3 14 10 6 6 5 6 6 5 5 4 6 9 7 9 11 8 8 6 5 7 6 4 5 6 6 6 4 4 5 5 4 5 7 5 6 10 8 6 6 7 9 9 11 12 10 7 6 5 5 5 6 6 7 7 7 9 10 11 12 12 12 12 12 11 10 8 5 4 4 5 5 4 4 4 4 5 5 6 7 8 8 10 10 9 9 10 8
4 8 3 3 11 2 1 14 6 -1 8 8 6 10 7 5 9 7 5 5 4 7 8 8 10 9 9 9 8 8 7 5 4 5 6 6 5 5 4 5 5 4 6 5 6 9 9 7 6 6 9 10 11 12 10 7 5 5 4 5 5 5 5 6 6 6 7 8 8 9 9 9 9 8 6 6 4 4 5 6 6 5 4 4 6 6 6 6 7 9 9 8 8 8 10 9 8
6 9 3 1 10 8 -0 6 10 3 -1 -4 -3 9 12 5 6 8 5 4 4 5 8 10 9 8 8 9 11 11 8 5 4 5 6 5 5 5 4 4 4 5 5 4 6 9 9 8 6 5 7 9 10 11 10 8 6 5 5 5 5 6 5 5 6 6 5 6 6 6 7 6 6 6 5 5 5 6 6 6 5 5 6 6 7 6 5 5 6 8 9 9 8 8 9 9 8
6 9 10 7 7 10 5 3 10 8 1 0 -6 -4 8 9 5 7 6 3 5 4 4 9 9 8 9 7 9 12 10 7 5 5 6 6 5 6 5 4 4 5 5 3 4 8 10 9 6 4 5 7 9 10 10 9 7 5 6 6 5 5 5 5 5 6 6 5 6 5 5 6 5 4 5 5 5 5 5 5 5 6 6 7 7 6 6 5 5 8 9 8 9 9 8 7 7
7 10 9 8 7 9 8 5 8 6 1 7 3 -10 -5 8 9 12 14 7 3 3 2 5 7 7 10 9 8 10 10 9 8 6 6 6 6 7 6 4 5 5 4 3 4 6 9 10 8 5 4 6 7 8 9 9 8 7 5 6 7 6 5 5 5 5 6 5 5 5 5 5 5 5 5 5 5 5 5 5 6 6 6 6 6 6 5 5 5 7 9 9 9 9 8 7 6
6 12 9 8 10 10 8 4 5 8 5 4 6 1 -5 0 4 7 16 14 5 1 -1 2 4 4 6 8 8 8 7 9 10 9 8 6 5 6 5 5 6 6 5 4 3 5 8 9 9 7 5 5 5 6 8 8 8 8 7 6 6 7 6 5 6 5 6 6 5 5 5 5 5 5 5 5 5 6 6 6 6 6 6 5 6 6 5 5 6 8 10 10 9 9 8 6 6
8 11 10 10 9 7 8 7 3 7 12 8 6 8 3 -2 2 6 12 14 10 5 2 5 6 2 2 5 7 8 6 6 9 9 8 8 6 5 5 5 6 6 5 4 4 5 7 8 8 8 8 7 5 4 5 6 7 7 7 8 6 6 6 6 7 6 6 7 6 5 6 6 6 5 5 5 6 6 6 6 6 5 6 6 6 7 6 6 8 10 10 9 8 9 8 6 5
11 11 10 11 10 7 7 9 9 8 12 13 9 12 10 -0 -0 10 15 14 15 13 8 9 10 5 2 4 5 7 7 5 6 7 7 8 8 6 5 4 6 6 5 4 5 5 6 8 8 7 8 9 7 5 4 4 5 6 6 7 7 6 6 7 7 7 7 7 7 7 7 6 7 7 6 6 6 7 6 6 6 6 6 8 8 7 7 8 9 10 9 8 7 7 7 6 6
12 11 11 11 12 10 7 6 6 5 9 15 10 9 13 5 -3 2 7 9 15 16 9 6 10 9 4 2 3 4 7 6 7 7 6 7 9 8 5 4 5 6 6 5 4 5 6 7 8 7 6 9 9 6 6 5 4 5 5 5 6 6 6 7 7 7 7 7 7 8 8 8 7 7 7 8 7 6 7 7 7 8 7 7 8 9 9 8 9 8 8 8 8 7 7 7 6
13 11 11 12 13 12 11 7 3 2 4 9 9 8 10 4 0 4 6 6 9 13 13 7 7 12 11 6 2 3 6 5 6 9 7 6 8 10 8 5 5 5 5 6 4 5 6 7 8 7 4 6 9 8 7 7 5 4 5 5 5 5 5 6 6 7 6 7 7 6 7 7 8 8 7 7 7 7 7 7 7 7 7 7 6 7 8 7 7 6 6 7 7 7 7 6 7
18 13 8 10 18 16 12 11 9 8 8 6 5 9 14 5 -3 2 5 4 3 4 9 10 5 8 16 18 9 5 8 4 3 8 9 7 7 10 11 7 5 5 4 5 6 5 5 7 7 7 6 4 6 9 7 7 8 6 5 5 4 5 5 5 5 6 6 6 7 6 6 7 6 8 8 7 7 7 7 7 7 6 6 6 5 5 7 7 6 6 6 6 7 7 6 6 6
17 15 10 9 17 22 20 19 14 5 5 13 11 5 11 9 1 1 0 1 3 1 1 5 6 2 9 22 20 10 10 7 2 3 7 11 9 6 10 11 7 6 5 4 5 6 5 6 7 6 6 5 4 7 7 7 9 8 7 6 6 5 5 6 5 5 6 6 7 6 6 6 6 6 7 7 6 6 7 7 6 7 6 6 6 5 6 7 6 7 7 6 8 8 7 7 6
14 13 9 3 7 17 20 21 25 20 5 4 11 9 6 8 10 10 5 1 2 3 3 4 9 6 1 13 21 17 12 7 3 1 2 8 11 6 5 9 9 6 7 6 4 7 6 4 7 7 5 5 4 5 6 6 7 9 9 7 7 7 6 6 6 6 6 6 7 8 7 7 7 7 7 7 7 6 7 7 6 7 8 7 8 7 7 7 7 7 7 7 8 8 8 8 8
18 14 8 -0 -2 8 12 4 6 18 11 -4 1 12 8 3 12 17 13 12 8 6 9 7 10 14 7 3 9 19 22 13 4 2 1 2 7 11 6 4 8 7 5 8 5 6 8 6 5 6 6 5 4 5 6 6 6 7 8 7 6 7 7 6 6 6 6 6 6 7 7 7 7 7 7 6 7 8 7 7 7 7 8 8 8 8 8 8 8 8 8 8 8 9 10 9 9
11 15 16 7 -4 -0 12 10 1 8 15 4 -0 13 12 3 10 17 12 12 11 9 10 7 5 11 13 9 4 9 20 22 15 4 0 2 3 9 11 4 5 8 5 6 7 5 6 8 7 5 6 6 5 5 5 5 6 5 6 6 5 5 6 6 5 5 5 6 7 6 6 8 7 6 7 6 6 7 7 8 8 7 7 8 7 8 9 8 8 7 7 8 8 8 8 8 8
-4 10 22 20 12 8 10 11 10 17 22 14 5 10 16 14 18 21 13 8 9 9 9 6 5 6 10 13 9 4 5 17 33 22 0 2 5 3 10 9 3 6 6 4 5 6 6 7 8 7 5 6 6 5 6 5 5 5 5 5 5 5 6 5 5 5 4 4 5 6 6 6 7 6 6 7 6 6 7 6 7 7 6 6 7 7 7 7 7 7 6 6 7 7 6 6 6
-4 -2 7 9 11 18 21 11 4 12 21 27 27 14 6 11 17 16 10 7 7 8 8 6 6 6 6 9 10 12 7 9 41 47 10 -2 8 4 4 8 6 4 6 5 3 4 7 7 7 7 5 6 6 5 6 5 4 4 4 4 5 4 5 5 6 5 6 6 5 5 6 5 6 7 5 6 7 6 6 6 6 7 6 5 6 5 6 6 6 6 6 6 5 5 6 6 5
11 8 11 10 3 3 15 16 8 5 2 10 27 22 6 6 12 12 7 4 3 5 7 6 4 4 5 6 6 11 11 3 25 51 29 -1 -0 7 7 5 6 6 2 4 6 4 5 7 8 9 7 6 6 6 6 6 5 4 3 3 3 4 4 4 6 6 5 7 7 5 6 6 5 6 6 5 6 6 6 6 6 7 7 5 5 5 6 6 6 5 5 5 5 4 4 4 4
7 12 14 18 18 8 5 7 10 10 -0 -4 9 15 11 6 3 8 11 7 5 5 5 3 5 6 4 4 3 5 10 4 5 28 40 26 5 0 9 7 3 8 5 1 5 6 5 6 7 9 9 7 7 7 6 6 5 5 5 4 2 2 4 3 4 6 6 6 7 6 6 7 6 7 7 6 6 6 6 6 6 5 7 7 6 6 6 7 7 6 6 6 6 6 4 3 4
-2 -0 1 5 14 17 13 11 14 14 8 6 5 0 6 10 4 7 12 9 6 6 5 4 4 4 2 3 3 2 7 9 3 0 19 47 40 8 5 13 6 3 6 4 5 5 4 6 7 8 9 9 9 8 8 7 6 6 5 5 5 2 2 4 3 4 6 5 6 7 6 6 6 6 7 7 7 7 6 6 6 5 6 7 7 7 8 9 8 7 7 7 8 8 8 7 8
Height
5901 5901 5901 5901 5900 5900 5899 5899 5899 5900 5900 5901 5901 5901 5899 5898 5898 5898 5898 5898 5898 5897 5897 5897 5897 5896 5896 5896 5896 5896 5896 5896 5896 5896 5895 5895 5895 5896 5897 5897 5897 5898 5898 5898 5899 5899 5900 5901 5902 5902 5903 5904 5905 5905 5905 5905 5906 5907 5907 5908 5909 5910 5909 5910 5912 5912 5912 5912 5912 5912 5913 5914 5915 5915 5915 5915 5915 5916 5916 5917 5917 5918 5919 5919 5919 5920 5921 5921 5921 5922 5921 5921 5921 5922 5923 5923 5922
5902 5902 5902 5901 5901 5900 5900 5900 5900 5901 5901 5902 5902 5902 5900 5899 5899 5899 5898 5898 5898 5898 5897 5897 5897 5897 5897 5896 5896 5896 5896 5897 5897 5897 5896 5896 5896 5897 5897 5898 5898 5898 5899 5900 5900 5900 5901 5902 5903 5904 5905 5905 5906 5906 5906 5906 5907 5907 5908 5908 5909 5910 5910 5911 5912 5912 5913 5913 5913 5913 5914 5914 5915 5915 5916 5916 5916 5917 5917 5917 5918 5919 5919 5919 5920 5920 5921 5921 5922 5922 5922 5922 5922 5923 5924 5924 5923
5903 5903 5903 5902 5902 5901 5901 5901 5902 5902 5902 5903 5903 5902 5901 5900 5900 5899 5899 5899 5899 5898 5898 5898 5898 5897 5897 5897 5897 5897 5897 5897 5897 5897 5897 5897 5897 5897 5898 5898 5899 5899 5900 5901 5901 5901 5902 5903 5904 5905 5906 5906 5907 5907 5907 5907 5908 5908 5908 5909 5910 5911 5911 5911 5912 5912 5913 5913 5913 5913 5914 5914 5915 5915 5916 5916 5917 5917 5918 5918 5918 5919 5919 5920 5920 5921 5921 5921 5922 5922 5922 5922 5923 5923 5924 5925 5924
5904 5904 5903 5903 5902 5902 5902 5902 5903 5903 5904 5904 5904 5903 5902 5901 5901 5900 5900 5899 5899 5899 5899 5898 5898 5898 5898 5898 5898 5898 5898 5898 5897 5897 5897 5897 5898 5898 5898 5899 5899 5900 5901 5902 5902 5903 5903 5905 5906 5907 5907 5907 5907 5907 5908 5908 5909 5909 5909 5909 5910 5911 5912 5912 5913 5913 5913 5913 5914 5914 5914 5915 5915 5916 5916 5917 5917 5918 5918 5918 5918 5919 5919 5920 5921 5921 5921 5921 5922 5922 5922 5922 5923 5923 5924 5925 5925
5905 5905 5904 5904 5903 5903 5903 5904 5904 5904 5905 5905 5904 5904 5903 5902 5902 5901 5901 5900 5900 5900 5900 5899 5899 5899 5899 5898 5898 5898 5898 5898 5898 5898 5898 5898 5898 5898 5899 5899 5900 5900 5901 5903 5904 5904 5905 5905 5907 5907 5907 5907 5907 5908 5908 5909 5909 5909 5910 5910 5911 5911 5912 5912 5912 5913 5912 5913 5914 5914 5915 5915 5916 5916 5917 5917 5917 5918 5918 5918 5919 5919 5920 5920 5921 5921 5922 5922 5923 5923 5923 5923 5923 5923 5925 5926 5926
5906 5905 5905 5904 5904 5904 5904 5905 5905 5905 5905 5905 5905 5904 5903 5903 5902 5902 5902 5901 5900 5900 5900 5900 5900 5900 5899 5899 5899 5899 5899 5899 5898 5898 5899 5898 5898 5899 5899 5900 5901 5901 5902 5904 5905 5906 5906 5906 5907 5908 5907 5907 5908 5908 5909 5909 5909 5909 5910 5911 5912 5912 5913 5912 5912 5913 5912 5912 5914 5915 5916 5916 5917 5917 5918 5918 5918 5918 5918 5919 5919 5919 5920 5920 5921 5921 5922 5923 5923 5924 5924 5924 5924 5924 5926 5927 5927
5907 5906 5906 5905 5905 5905 5905 5906 5907 5906 5906 5906 5905 5905 5904 5903 5903 5903 5902 5902 5902 5901 5901 5901 5901 5901 5900 5900 5900 5900 5900 5899 5899 5899 5900 5899 5899 5900 5900 5901 5901 5902 5903 5905 5906 5906 5906 5907 5907 5908 5907 5907 5908 5909 5909 5910 5910 5910 5910 5911 5912 5913 5913 5912 5913 5913 5912 5913 5914 5916 5918 5917 5917 5918 5918 5918 5918 5918 5918 5919 5919 5920 5920 5921 5921 5921 5922 5922 5923 5924 5925 5925 5925 5926 5927 5928 5927
5908 5907 5907 5907 5906 5906 5906 5907 5907 5907 5907 5906 5906 5905 5905 5904 5904 5904 5903 5903 5903 5902 5902 5902 5902 5902 5901 5901 5901 5901 5900 5900 5900 5900 5901 5901 5901 5901 5901 5902 5902 5903 5904 5906 5907 5907 5907 5907 5908 5908 5908 5908 5909 5909 5910 5910 5911 5911 5911 5911 5912 5913 5914 5913 5914 5913 5912 5914 5915 5917 5918 5918 5918 5918 5919 5919 5919 5918 5918 5919 5919 5920 5921 5922 5922 5922 5922 5923 5923 5924 5925 5926 5926 5927 5927 5928 5928
5908 5908 5908 5908 5907 5907 5907 5908 5908 5907 5907 5906 5906 5906 5905 5905 5905 5905 5904 5904 5903 5903 5903 5903 5903 5903 5903 5902 5902 5902 5901 5901 5901 5901 5902 5902 5902 5902 5902 5902 5903 5904 5905 5906 5907 5907 5906 5907 5909 5909 5909 5909 5910 5910 5910 5911 5911 5912 5912 5912 5912 5913 5913 5913 5913 5912 5912 5914 5915 5916 5917 5918 5919 5919 5919 5919 5919 5919 5919 5919 5919 5920 5922 5922 5922 5923 5923 5923 5924 5925 5926 5926 5926 5927 5927 5928 5929
5909 5909 5909 5908 5908 5908 5908 5909 5908 5908 5908 5907 5906 5906 5906 5905 5906 5905 5905 5904 5904 5904 5904 5904 5904 5904 5904 5903 5903 5903 5902 5902 5902 5902 5903 5903 5903 5903 5903 5903 5904 5904 5905 5906 5907 5906 5906 5908 5909 5909 5909 5909 5910 5910 5911 5911 5912 5912 5912 5912 5912 5912 5912 5912 5912 5912 5913 5914 5916 5916 5917 5918 5919 5919 5919 5919 5919 5919 5919 5919 5920 5921 5922 5922 5923 5923 5924 5924 5924 5924 5926 5926 5927 5928 5928 5929 5929
5910 5910 5909 5909 5909 5909 5909 5910 5909 5909 5908 5908 5907 5907 5906 5906 5906 5906 5906 5905 5905 5905 5905 5905 5905 5905 5905 5904 5904 5904 5903 5903 5903 5903 5903 5903 5904 5904 5904 5904 5904 5905 5905 5906 5906 5906 5907 5909 5910 5909 5909 5909 5909 5910 5910 5911 5911 5911 5911 5911 5912 5911 5911 5912 5912 5913 5914 5915 5916 5917 5917 5918 5918 5919 5919 5919 5919 5919 5919 5920 5921 5922 5922 5923 5923 5923 5924 5924 5924 5924 5925 5927 5927 5928 5929 5930 5929
5910 5910 5910 5910 5910 5910 5910 5910 5910 5910 5909 5909 5908 5908 5908 5907 5907 5907 5906 5906 5906 5906 5906 5906 5906 5905 5905 5905 5905 5904 5904 5904 5904 5904 5904 5904 5904 5904 5904 5904 5905 5905 5906 5905 5905 5906 5907 5909 5910 5910 5910 5910 5910 5910 5910 5910 5910 5910 5910 5911 5911 5911 5911 5912 5912 5913 5914 5915 5915 5916 5917 5917 5917 5918 5919 5919 5919 5920 5920 5920 5921 5922 5922 5923 5924 5924 5925 5925 5925 5925 5926 5926 5927 5928 5929 5929 5929
5910 5910 5910 5911 5911 5910 5911 5911 5910 5910 5910 5910 5909 5909 5908 5908 5908 5907 5907 5907 5907 5906 5906 5906 5906 5906 5906 5906 5905 5905 5905 5904 5904 5905 5905 5905 5904 5904 5905 5905 5906 5906 5906 5905 5905 5906 5907 5908 5909 5909 5910 5911 5910 5910 5910 5909 5910 5909 5910 5912 5911 5911 5912 5912 5913 5913 5914 5915 5915 5916 5916 5916 5917 5917 5919 5919 5920 5920 5920 5920 5921 5922 5922 5923 5924 5925 5925 5926 5926 5926 5926 5927 5927 5928 5928 5928 5929
5910 5911 5911 5911 5911 5911 5911 5911 5911 5911 5910 5910 5910 5910 5909 5909 5908 5908 5908 5908 5908 5907 5907 5907 5907 5906 5907 5907 5906 5905 5905 5905 5905 5906 5906 5906 5905 5905 5906 5906 5907 5907 5907 5906 5905 5906 5908 5908 5908 5908 5909 5909 5909 5909 5909 5909 5909 5909 5911 5912 5912 5912 5913 5913 5913 5913 5913 5914 5915 5915 5916 5916 5917 5918 5918 5919 5919 5920 5921 5921 5922 5922 5923 5923 5924 5925 5926 5926 5927 5926 5927 5927 5928 5928 5928 5929 5929
5911 5911 5911 5912 5912 5911 5911 5911 5911 5911 5910 5910 5910 5910 5910 5909 5909 5909 5908 5908 5908 5908 5907 5907 5907 5907 5907 5907 5907 5906 5906 5906 5906 5906 5907 5907 5907 5907 5907 5908 5909 5909 5908 5907 5906 5907 5908 5908 5908 5908 5908 5909 5909 5909 5909 5909 5908 5909 5911 5912 5911 5912 5913 5913 5913 5913 5913 5914 5914 5914 5915 5915 5916 5917 5918 5919 5919 5921 5922 5921 5922 5923 5923 5923 5924 5925 5926 5927 5927 5927 5928 5928 5928 5929 5929 5930 5931
5912 5912 5912 5912 5912 5912 5911 5911 5911 5911 5911 5911 5910 5910 5910 5910 5910 5909 5909 5909 5908 5908 5907 5907 5908 5907 5907 5908 5908 5907 5906 5906 5907 5907 5907 5907 5908 5908 5909 5910 5910 5910 5910 5908 5908 5909 5909 5908 5908 5909 5909 5909 5909 5909 5908 5909 5908 5909 5910 5911 5911 5911 5912 5912 5913 5913 5913 5913 5913 5914 5914 5915 5916 5917 5917 5918 5919 5921 5922 5922 5923 5924 5924 5924 5925 5926 5927 5927 5928 5928 5929 5929 5929 5930 5931 5931 5932
5912 5912 5912 5912 5912 5911 5911 5911 5911 5911 5911 5911 5911 5910 5910 5910 5910 5910 5910 5909 5908 5908 5908 5907 5908 5908 5907 5908 5908 5907 5906 5907 5907 5907 5908 5908 5908 5909 5910 5911 5912 5912 5911 5909 5909 5910 5909 5909 5909 5909 5909 5909 5909 5908 5908 5908 5908 5908 5909 5911 5911 5910 5911 5911 5912 5912 5913 5913 5913 5914 5914 5915 5916 5916 5917 5918 5919 5920 5922 5923 5923 5924 5925 5925 5926 5926 5927 5928 5929 5929 5930 5930 5930 5931 5932 5932 5933
5912 5912 5912 5912 5912 5911 5911 5911 5910 5911 5911 5911 5911 5911 5910 5910 5910 5910 5910 5909 5909 5909 5908 5907 5907 5908 5908 5908 5909 5908 5907 5907 5908 5908 5908 5908 5909 5909 5910 5912 5912 5913 5911 5910 5910 5910 5910 5909 5910 5910 5910 5909 5909 5908 5908 5908 5908 5907 5908 5910 5910 5909 5910 5911 5911 5912 5912 5912 5913 5913 5913 5914 5915 5915 5917 5918 5919 5920 5921 5922 5924 5925 5925 5925 5926 5927 5928 5929 5929 5930 5930 5931 5931 5932 5933 5933 5934
5911 5911 5912 5912 5911 5911 5911 5911 5910 5910 5910 5911 5911 5911 5910 5910 5910 5910 5910 5910 5909 5909 5909 5908 5907 5908 5908 5908 5909 5909 5908 5908 5908 5908 5908 5909 5909 5910 5911 5912 5913 5914 5913 5911 5911 5911 5910 5910 5910 5911 5910 5909 5908 5908 5908 5908 5908 5907 5907 5908 5909 5909 5909 5910 5911 5911 5911 5912 5913 5913 5913 5914 5914 5915 5917 5918 5918 5920 5921 5922 5924 5925 5925 5925 5927 5928 5929 5930 5930 5930 5931 5931 5932 5933 5934 5934 5935
5911 5911 5911 5911 5911 5911 5911 5911 5910 5910 5910 5910 5910 5911 5910 5910 5910 5910 5910 5910 5910 5909 5909 5909 5908 5908 5908 5908 5909 5909 5908 5908 5908 5909 5909 5909 5910 5910 5912 5913 5914 5915 5914 5913 5912 5911 5911 5911 5911 5911 5910 5909 5909 5908 5908 5908 5908 5907 5907 5908 5908 5909 5909 5909 5910 5910 5911 5911 5912 5913 5912 5913 5914 5915 5917 5918 5919 5920 5921 5923 5924 5925 5925 5926 5927 5928 5929 5930 5930 5931 5931 5932 5933 5934 5935 5935 5936
5910 5910 5910 5910 5911 5911 5911 5911 5910 5910 5910 5910 5910 5910 5910 5909 5910 5910 5910 5910 5910 5909 5909 5909 5909 5909 5909 5909 5909 5909 5909 5908 5909 5909 5909 5909 5910 5910 5911 5913 5915 5915 5914 5913 5912 5912 5912 5912 5912 5912 5911 5910 5909 5909 5909 5909 5908 5908 5907 5908 5908 5908 5909 5910 5910 5910 5911 5911 5912 5913 5912 5913 5914 5915 5916 5918 5919 5921 5922 5923 5924 5925 5925 5926 5928 5929 5930 5930 5931 5932 5932 5933 5934 5935 5935 5936 5937
5909 5909 5909 5910 5910 5910 5910 5910 5910 5910 5910 5909 5909 5909 5909 5909 5909 5910 5910 5909 5910 5909 5909 5909 5909 5909 5909 5909 5909 5909 5909 5909 5909 5909 5909 5910 5910 5910 5911 5913 5914 5915 5915 5914 5913 5913 5913 5913 5912 5912 5911 5910 5910 5909 5909 5909 5909 5908 5908 5908 5908 5908 5909 5910 5910 5910 5911 5911 5912 5913 5913 5913 5914 5915 5917 5918 5920 5921 5922 5924 5925 5925 5926 5927 5928 5929 5930 5931 5932 5932 5933 5934 5935 5936 5936 5937 5938
5908 5908 5908 5908 5908 5909 5909 5909 5909 5909 5909 5908 5908 5907 5908 5907 5907 5909 5910 5909 5910 5909 5909 5909 5909 5909 5910 5910 5910 5910 5910 5909 5909 5909 5910 5910 5910 5910 5911 5913 5914 5915 5915 5914 5914 5914 5914 5913 5913 5913 5912 5911 5910 5910 5910 5910 5909 5909 5908 5908 5909 5909 5909 5910 5910 5911 5911 5912 5912 5913 5914 5915 5915 5916 5917 5919 5920 5921 5923 5924 5925 5926 5927 5928 5929 5930 5931 5932 5933 5933 5934 5935 5936 5937 5937 5938 5938
5907 5907 5907 5907 5907 5907 5907 5907 5907 5908 5908 5907 5906 5905 5906 5905 5906 5908 5909 5909 5909 5909 5909 5909 5909 5909 5909 5910 5910 5910 5910 5909 5909 5910 5910 5910 5911 5911 5911 5913 5914 5915 5915 5914 5914 5914 5914 5914 5914 5913 5912 5912 5911 5911 5911 5910 5910 5910 5909 5909 5909 5909 5910 5911 5911 5912 5912 5912 5913 5913 5914 5915 5916 5917 5918 5919 5920 5922 5924 5925 5926 5927 5927 5929 5930 5931 5932 5933 5933 5934 5935 5936 5937 5937 5938 5939 5939
5906 5906 5905 5905 5905 5905 5905 5905 5906 5906 5906 5906 5904 5903 5903 5903 5904 5906 5908 5909 5909 5909 5909 5909 5909 5909 5909 5910 5910 5910 5911 5910 5910 5910 5911 5911 5911 5911 5912 5913 5914 5915 5915 5915 5915 5915 5915 5915 5914 5914 5913 5912 5912 5912 5911 5911 5910 5910 5910 5910 5910 5910 5910 5911 5912 5912 5913 5913 5913 5914 5914 5915 5916 5917 5918 5920 5921 5922 5924 5925 5926 5927 5928 5930 5930 5931 5932 5933 5934 5935 5936 5936 5937 5938 5938 5939 5940
5905 5904 5904 5904 5904 5904 5904 5904 5904 5904 5904 5904 5903 5902 5901 5901 5903 5905 5906 5908 5908 5909 5909 5909 5909 5909 5909 5910 5910 5911 5911 5911 5911 5911 5911 5912 5912 5912 5912 5913 5914 5915 5915 5915 5915 5915 5915 5915 5915 5914 5914 5913 5913 5912 5912 5911 5911 5911 5911 5910 5911 5911 5911 5912 5912 5913 5913 5914 5914 5915 5915 5916 5916 5917 5919 5920 5922 5923 5925 5926 5927 5928 5929 5930 5931 5932 5933 5934 5935 5936 5936 5937 5938 5939 5939 5940 5940
5903 5903 5903 5903 5903 5903 5903 5903 5903 5903 5902 5901 5901 5900 5899 5900 5902 5903 5905 5906 5908 5908 5909 5909 5909 5909 5909 5910 5911 5912 5912 5912 5911 5911 5912 5912 5912 5913 5913 5913 5914 5915 5916 5916 5915 5915 5916 5915 5915 5915 5914 5914 5913 5913 5913 5912 5911 5911 5911 5911 5912 5912 5912 5913 5913 5914 5914 5915 5916 5916 5917 5917 5918 5919 5920 5921 5922 5924 5925 5927 5928 5929 5930 5931 5932 5932 5933 5935 5936 5937 5937 5938 5939 5939 5940 5941 5941
5902 5902 5902 5902 5902 5902 5902 5902 5902 5902 5901 5899 5899 5898 5898 5898 5900 5902 5904 5905 5907 5908 5909 5909 5909 5909 5909 5910 5911 5912 5912 5912 5912 5912 5912 5912 5913 5913 5913 5914 5915 5915 5916 5916 5916 5916 5916 5916 5915 5915 5915 5914 5914 5914 5913 5913 5913 5913 5913 5913 5913 5913 5914 5914 5914 5915 5915 5916 5917 5918 5918 5919 5919 5920 5921 5922 5924 5925 5927 5928 5929 5930 5931 5932 5932 5933 5934 5935 5936 5937 5938 5939 5939 5940 5941 5941 5942
5901 5901 5901 5901 5901 5901 5901 5901 5901 5901 5900 5899 5898 5898 5897 5896 5898 5902 5904 5905 5906 5908 5908 5909 5909 5909 5909 5910 5911 5912 5913 5913 5912 5913 5913 5913 5913 5914 5914 5914 5915 5916 5917 5917 5917 5917 5916 5916 5916 5915 5915 5915 5915 5914 5914 5914 5914 5914 5914 5914 5914 5914 5914 5915 5915 5916 5917 5917 5918 5919 5920 5920 5921 5922 5923 5924 5925 5927 5928 5929 5930 5931 5932 5933 5933 5934 5935 5936 5937 5938 5938 5939 5940 5941 5941 5942 5942
5900 5900 5901 5901 5901 5900 5900 5900 5900 5900 5899 5899 5898 5897 5897 5896 5898 5902 5903 5904 5906 5907 5908 5908 5909 5909 5909 5910 5911 5912 5913 5913 5913 5913 5913 5913 5914 5914 5914 5915 5916 5916 5917 5918 5918 5918 5917 5917 5916 5916 5916 5915 5915 5915 5915 5915 5915 5915 5915 5915 5915 5915 5915 5916 5917 5917 5918 5919 5919 5920 5921 5922 5922 5923 5924 5926 5927 5928 5930 5931 5931 5932 5933 5934 5934 5935 5936 5936 5938 5938 5939 5940 5940 5941 5942 5942 5942
5899 5900 5901 5901 5900 5899 5899 5899 5899 5899 5899 5898 5898 5897 5897 5897 5899 5901 5903 5904 5905 5907 5907 5908 5908 5909 5909 5910 5911 5912 5913 5913 5913 5913 5913 5914 5914 5914 5915 5915 5916 5917 5918 5918 5918 5918 5918 5917 5917 5917 5916 5916 5916 5916 5916 5916 5916 5916 5916 5916 5916 5916 5917 5917 5918 5919 5919 5920 5921 5921 5922 5923 5924 5925 5926 5927 5928 5929 5930 5931 5932 5933 5934 5934 5935 5936 5936 5937 5938 5939 5940 5940 5941 5942 5942 5942 5943
5898 5899 5900 5900 5899 5898 5898 5898 5899 5899 5899 5898 5898 5898 5897 5898 5900 5902 5903 5904 5905 5906 5907 5907 5908 5909 5909 5910 5911 5912 5913 5913 5913 5913 5914 5914 5914 5914 5915 5916 5916 5917 5918 5918 5919 5919 5919 5918 5918 5917 5917 5917 5917 5917 5917 5917 5917 5917 5917 5917 5917 5918 5918 5919 5919 5920 5921 5922 5922 5923 5924 5925 5926 5926 5927 5928 5929 5930 5931 5932 5933 5934 5934 5935 5936 5937 5937 5938 5939 5940 5940 5941 5942 5942 5943 5943 5944
5896 5898 5899 5899 5898 5897 5897 5898 5898 5899 5899 5899 5898 5898 5899 5899 5901 5902 5903 5904 5905 5906 5907 5907 5908 5908 5909 5909 5910 5912 5912 5913 5913 5914 5914 5914 5914 5915 5915 5916 5917 5917 5918 5919 5919 5919 5919 5919 5918 5918 5918 5918 5918 5918 5917 5917 5918 5918 5918 5918 5919 5919 5919 5920 5920 5921 5922 5923 5924 5925 5925 5926 5927 5928 5929 5929 5930 5931 5932 5933 5934 5935 5935 5936 5937 5938 5938 5939 5939 5940 5941 5942 5942 5943 5943 5943 5944
5895 5896 5898 5898 5898 5897 5897 5897 5898 5899 5899 5899 5899 5899 5900 5900 5901 5902 5903 5904 5905 5906 5906 5907 5908 5908 5909 5909 5910 5911 5912 5913 5914 5914 5914 5915 5915 5915 5915 5916 5917 5918 5918 5919 5920 5920 5920 5919 5919 5919 5919 5919 5919 5919 5918 5918 5918 5919 5919 5919 5920 5920 5920 5921 5921 5922 5923 5924 5925 5926 5927 5927 5928 5929 5930 5931 5931 5932 5933 5934 5935 5936 5937 5937 5938 5938 5939 5940 5940 5941 5941 5942 5943 5943 5943 5943 5944
5893 5895 5896 5897 5897 5897 5896 5896 5898 5898 5899 5900 5900 5900 5901 5900 5901 5902 5903 5904 5905 5906 5906 5907 5908 5908 5909 5910 5910 5911 5912 5913 5914 5915 5915 5915 5915 5915 5916 5916 5917 5918 5918 5919 5920 5920 5921 5920 5920 5920 5920 5920 5920 5920 5919 5919 5919 5920 5920 5920 5921 5921 5922 5922 5922 5923 5924 5925 5925 5926 5928 5929 5930 5930 5931 5932 5933 5933 5934 5935 5936 5937 5937 5938 5939 5940 5940 5941 5941 5942 5942 5943 5943 5943 5944 5944 5944
5891 5893 5894 5895 5895 5895 5895 5896 5897 5898 5898 5899 5900 5901 5901 5901 5901 5902 5903 5904 5905 5906 5907 5907 5908 5909 5909 5910 5910 5911 5912 5913 5914 5915 5915 5915 5915 5915 5916 5916 5917 5918 5918 5919 5920 5921 5921 5921 5921 5921 5921 5921 5921 5921 5921 5921 5921 5921 5921 5921 5922 5922 5923 5923 5923 5924 5925 5926 5926 5927 5928 5929 5931 5932 5932 5933 5934 5935 5936 5936 5937 5938 5938 5939 5940 5941 5942 5942 5942 5943 5943 5944 5944 5944 5944 5944 5944
5888 5891 5892 5893 5894 5894 5895 5895 5896 5897 5898 5898 5899 5900 5901 5901 5902 5902 5903 5903 5905 5906 5907 5907 5908 5908 5909 5910 5910 5910 5912 5913 5914 5915 5915 5915 5915 5916 5916 5917 5917 5918 5918 5919 5920 5921 5922 5922 5922 5921 5921 5921 5922 5922 5922 5922 5922 5922 5922 5923 5923 5924 5924 5924 5925 5925 5926 5927 5927 5928 5929 5930 5931 5932 5934 5934 5935 5936 5937 5937 5938 5939 5939 5940 5941 5942 5942 5943 5943 5943 5944 5944 5945 5945 5945 5945 5945
5886 5888 5890 5891 5892 5892 5893 5894 5895 5896 5897 5897 5898 5899 5900 5901 5902 5902 5903 5903 5904 5905 5906 5907 5907 5908 5908 5909 5910 5911 5912 5913 5914 5915 5915 5915 5915 5916 5916 5917 5917 5918 5918 5919 5920 5921 5922 5922 5922 5922 5922 5922 5923 5923 5923 5923 5923 5923 5923 5924 5924 5925 5925 5926 5926 5927 5927 5928 5929 5929 5930 5931 5932 5933 5934 5935 5936 5937 5938 5939 5939 5940 5941 5941 5942 5943 5943 5943 5943 5944 5944 5945 5945 5945 5945 5945 5945
5884 5886 5888 5890 5890 5891 5892 5893 5894 5894 5895 5896 5897 5898 5900 5901 5902 5902 5903 5903 5903 5904 5905 5906 5907 5908 5908 5909 5910 5911 5912 5913 5913 5914 5915 5915 5915 5916 5916 5917 5917 5918 5918 5919 5920 5921 5922 5923 5923 5923 5923 5923 5923 5924 5924 5924 5924 5924 5924 5924 5925 5926 5927 5927 5928 5928 5929 5929 5930 5931 5931 5932 5933 5934 5935 5936 5937 5938 5939 5940 5940 5941 5942 5942 5943 5944 5944 5944 5944 5945 5945 5945 5946 5946 5946 5946 5946
5883 5884 5887 5887 5887 5889 5891 5891 5892 5893 5894 5896 5897 5898 5900 5900 5901 5902 5902 5902 5903 5904 5905 5906 5907 5908 5908 5909 5910 5911 5912 5912 5913 5914 5915 5915 5915 5916 5916 5917 5917 5918 5918 5919 5920 5921 5922 5923 5923 5924 5924 5924 5924 5925 5925 5925 5925 5925 5925 5925 5926 5927 5928 5928 5929 5930 5930 5931 5931 5932 5933 5934 5935 5936 5937 5938 5938 5939 5940 5941 5941 5942 5943 5943 5944 5945 5945 5945 5945 5946 5946 5946 5946 5947 5947 5947 5947
5881 5882 5884 5885 5885 5887 5888 5889 5891 5892 5893 5895 5896 5897 5899 5900 5900 5901 5901 5902 5902 5903 5904 5905 5906 5906 5907 5909 5909 5910 5912 5912 5913 5913 5914 5915 5915 5916 5916 5917 5917 5918 5918 5919 5920 5921 5922 5923 5923 5924 5924 5925 5925 5925 5926 5926 5926 5926 5927 5927 5928 5928 5929 5929 5930 5931 5932 5932 5933 5933 5934 5935 5936 5937 5938 5939 5939 5940 5941 5942 5942 5943 5943 5944 5945 5945 5946 5946 5946 5946 5946 5947 5947 5947 5947 5947 5948
5879 5880 5881 5882 5882 5884 5887 5888 5890 5892 5893 5894 5895 5897 5898 5898 5899 5900 5901 5901 5901 5901 5902 5903 5904 5905 5906 5908 5909 5910 5911 5912 5913 5913 5914 5915 5915 5916 5916 5916 5917 5917 5918 5918 5920 5921 5922 5923 5924 5924 5924 5925 5926 5926 5926 5927 5927 5928 5928 5929 5929 5930 5930 5931 5931 5932 5933 5933 5934 5935 5935 5936 5937 5938 5939 5939 5940 5940 5941 5942 5943 5944 5944 5945 5945 5946 5946 5946 5947 5947 5947 5947 5948 5948 5948 5948 5948
5878 5877 5878 5879 5880 5882 5885 5887 5889 5891 5890 5892 5894 5895 5896 5897 5897 5899 5899 5899 5900 5901 5901 5902 5903 5904 5905 5906 5907 5909 5910 5911 5912 5913 5914 5914 5915 5916 5916 5916 5917 5917 5918 5918 5919 5920 5922 5923 5924 5924 5925 5925 5926 5926 5927 5927 5928 5928 5929 5929 5930 5931 5932 5932 5932 5933 5934 5934 5935 5936 5936 5937 5938 5939 5940 5940 5940 5941 5942 5942 5943 5944 5944 5945 5946 5946 5946 5947 5947 5947 5947 5948 5948 5948 5948 5949 5949
5875 5874 5876 5878 5878 5880 5883 5884 5887 5888 5888 5891 5893 5894 5895 5896 5897 5897 5898 5898 5898 5899 5900 5900 5901 5902 5903 5904 5906 5907 5908 5909 5910 5912 5912 5913 5914 5915 5915 5916 5917 5917 5917 5917 5918 5920 5921 5922 5923 5924 5924 5925 5926 5927 5927 5928 5928 5929 5929 5930 5931 5931 5932 5933 5933 5934 5934 5935 5935 5936 5937 5938 5938 5939 5940 5941 5941 5941 5942 5943 5943 5944 5945 5945 5946 5946 5946 5947 5947 5947 5947 5948 5948 5948 5948 5949 5949
5872 5873 5875 5875 5876 5878 5880 5882 5884 5885 5888 5890 5892 5894 5895 5895 5895 5896 5896 5896 5897 5897 5898 5897 5898 5900 5901 5902 5903 5905 5907 5908 5909 5910 5911 5912 5912 5913 5914 5915 5916 5917 5917 5917 5918 5919 5921 5922 5923 5924 5924 5925 5926 5926 5927 5928 5928 5929 5929 5930 5931 5932 5932 5933 5934 5935 5935 5935 5936 5936 5937 5938 5939 5939 5940 5941 5941 5942 5942 5943 5944 5944 5945 5945 5946 5946 5946 5947 5947 5947 5948 5948 5948 5948 5948 5949 5949
5870 5872 5873 5873 5875 5877 5878 5880 5882 5884 5887 5888 5889 5892 5893 5893 5894 5894 5894 5894 5895 5896 5896 5896 5897 5898 5899 5900 5901 5903 5904 5906 5908 5909 5909 5910 5911 5911 5912 5914 5916 5917 5917 5918 5918 5919 5920 5921 5922 5923 5924 5925 5925 5926 5927 5927 5928 5929 5929 5930 5930 5931 5932 5933 5934 5935 5935 5936 5936 5936 5937 5938 5938 5939 5940 5940 5941 5942 5943 5943 5944 5944 5945 5945 5946 5946 5947 5947 5947 5947 5948 5948 5948 5948 5948 5949 5949
5869 5870 5871 5872 5874 5876 5878 5880 5881 5883 5885 5885 5887 5890 5891 5891 5891 5892 5892 5892 5893 5894 5894 5895 5896 5897 5898 5899 5900 5901 5903 5904 5906 5907 5908 5909 5909 5910 5912 5913 5915 5916 5917 5918 5918 5919 5919 5920 5921 5923 5923 5924 5925 5925 5926 5927 5928 5928 5929 5929 5930 5931 5932 5933 5934 5935 5935 5936 5936 5936 5937 5937 5938 5939 5939 5940 5941 5941 5942 5943 5944 5944 5945 5945 5946 5946 5947 5947 5947 5948 5948 5948 5948 5948 5948 5949 5949
5867 5869 5870 5872 5873 5875 5877 5879 5880 5882 5882 5882 5884 5886 5888 5889 5889 5890 5890 5890 5892 5892 5893 5894 5894 5895 5896 5898 5899 5900 5901 5902 5904 5905 5906 5907 5908 5909 5911 5912 5914 5915 5916 5917 5918 5918 5919 5920 5921 5922 5922 5923 5924 5925 5925 5926 5927 5928 5929 5929 5929 5930 5931 5932 5933 5934 5935 5936 5936 5937 5937 5937 5938 5938 5939 5940 5940 5941 5942 5943 5943 5944 5944 5945 5946 5946 5947 5947 5947 5948 5948 5948 5948 5948 5948 5949 5949
5867 5868 5869 5871 5872 5873 5876 5877 5879 5880 5880 5880 5881 5883 5885 5886 5885 5887 5888 5888 5890 5891 5892 5892 5893 5894 5895 5895 5896 5897 5899 5900 5901 5903 5905 5906 5907 5909 5910 5911 5912 5914 5915 5916 5917 5917 5918 5919 5920 5921 5922 5923 5923 5924 5925 5925 5926 5927 5928 5929 5929 5930 5930 5931 5932 5933 5934 5935 5936 5937 5937 5938 5938 5939 5939 5940 5940 5941 5942 5943 5943 5944 5944 5945 5945 5946 5947 5947 5947 5948 5948 5948 5948 5948 5948 5948 5949
5865 5867 5868 5870 5872 5873 5874 5876 5877 5878 5878 5878 5879 5881 5883 5883 5882 5884 5886 5887 5888 5889 5890 5891 5891 5892 5893 5893 5894 5895 5897 5899 5900 5901 5903 5905 5906 5907 5908 5910 5911 5911 5912 5914 5915 5916 5917 5918 5919 5920 5921 5921 5922 5923 5924 5925 5925 5926 5927 5928 5929 5929 5930 5931 5931 5932 5933 5934 5935 5936 5937 5938 5939 5939 5940 5940 5941 5941 5942 5942 5943 5943 5944 5944 5945 5946 5946 5947 5947 5947 5948 5948 5948 5948 5948 5948 5948
5864 5865 5867 5868 5871 5872 5874 5875 5876 5876 5876 5875 5877 5879 5881 5881 5881 5882 5883 5885 5886 5887 5888 5890 5890 5890 5891 5891 5891 5893 5895 5897 5898 5899 5901 5903 5905 5906 5907 5908 5909 5909 5911 5912 5913 5915 5916 5917 5918 5918 5919 5920 5921 5922 5923 5924 5925 5925 5926 5927 5928 5929 5929 5930 5931 5931 5932 5933 5934 5936 5936 5937 5938 5939 5939 5940 5940 5941 5942 5942 5942 5943 5944 5944 5945 5945 5946 5946 5946 5947 5947 5947 5947 5947 5947 5947 5948
5863 5864 5865 5867 5868 5869 5871 5872 5872 5873 5873 5873 5874 5877 5878 5879 5880 5880 5882 5883 5885 5886 5887 5888 5888 5888 5889 5888 5889 5891 5893 5894 5896 5897 5899 5901 5903 5904 5906 5906 5907 5908 5909 5910 5912 5913 5915 5915 5916 5917 5918 5919 5920 5921 5922 5923 5923 5924 5925 5926 5927 5928 5928 5929 5930 5930 5931 5932 5933 5935 5935 5936 5937 5938 5939 5939 5940 5941 5941 5942 5942 5943 5943 5944 5944 5945 5945 5946 5946 5947 5947 5947 5947 5947 5947 5947 5947
5862 5863 5863 5864 5865 5865 5867 5868 5868 5869 5871 5871 5872 5874 5876 5877 5878 5879 5880 5881 5882 5884 5885 5886 5887 5887 5887 5887 5888 5889 5890 5892 5893 5894 5896 5898 5900 5903 5904 5905 5906 5907 5908 5909 5910 5912 5912 5913 5914 5915 5916 5917 5918 5919 5920 5921 5922 5923 5924 5925 5925 5926 5927 5928 5929 5930 5930 5931 5932 5933 5935 5935 5936 5937 5938 5939 5939 5940 5941 5941 5942 5942 5943 5943 5944 5944 5945 5946 5946 5946 5947 5947 5946 5946 5946 5946 5947
5860 5861 5861 5861 5863 5863 5865 5866 5866 5867 5868 5869 5870 5872 5873 5874 5875 5876 5878 5878 5880 5882 5883 5884 5885 5885 5886 5886 5886 5887 5887 5888 5889 5890 5892 5894 5896 5899 5902 5903 5904 5905 5906 5907 5908 5909 5910 5911 5912 5913 5914 5915 5916 5917 5919 5920 5921 5922 5922 5923 5924 5925 5926 5927 5928 5929 5930 5930 5931 5932 5933 5934 5935 5936 5937 5938 5938 5939 5940 5941 5941 5942 5942 5943 5943 5944 5945 5945 5946 5946 5946 5946 5946 5946 5946 5946 5946
5858 5859 5859 5860 5861 5861 5862 5864 5864 5865 5866 5867 5868 5869 5870 5871 5873 5874 5875 5876 5877 5879 5881 5882 5883 5884 5884 5885 5885 5885 5885 5885 5886 5887 5889 5891 5893 5896 5899 5901 5901 5902 5903 5904 5905 5906 5908 5909 5910 5911 5912 5913 5914 5915 5917 5918 5920 5921 5921 5922 5923 5924 5925 5926 5927 5928 5928 5929 5930 5931 5932 5933 5934 5935 5936 5936 5937 5938 5939 5940 5940 5941 5941 5942 5943 5943 5944 5945 5945 5946 5946 5946 5946 5946 5945 5945 5946
5855 5856 5857 5858 5859 5859 5859 5861 5862 5862 5864 5865 5866 5867 5867 5868 5871 5871 5872 5873 5874 5876 5878 5879 5881 5882 5882 5883 5883 5883 5883 5883 5884 5884 5886 5888 5890 5892 5895 5898 5899 5900 5900 5901 5902 5904 5905 5906 5907 5909 5910 5911 5912 5914 5915 5917 5918 5919 5920 5921 5921 5922 5923 5924 5925 5926 5927 5928 5928 5929 5930 5931 5932 5933 5934 5935 5936 5937 5937 5938 5939 5940 5940 5941 5942 5942 5943 5944 5944 5945 5945 5945 5946 5946 5945 5945 5945
5853 5854 5855 5856 5856 5857 5857 5858 5859 5859 5861 5861 5863 5865 5864 5865 5869 5870 5870 5871 5872 5874 5876 5877 5878 5880 5880 5881 5881 5881 5881 5881 5882 5883 5884 5885 5886 5887 5890 5894 5897 5898 5899 5899 5900 5902 5903 5904 5905 5906 5908 5909 5911 5912 5913 5915 5916 5918 5918 5919 5920 5920 5922 5923 5924 5925 5925 5926 5927 5928 5929 5930 5930 5931 5932 5933 5934 5935 5936 5937 5937 5938 5939 5940 5940 5941 5942 5942 5943 5944 5944 5944 5945 5945 5945 5945 5945
5851 5851 5852 5853 5854 5855 5855 5856 5856 5857 5858 5858 5859 5862 5861 5862 5866 5868 5868 5869 5869 5871 5873 5874 5876 5878 5878 5879 5879 5879 5879 5879 5880 5881 5881 5881 5881 5883 5886 5889 5893 5895 5897 5898 5899 5900 5901 5902 5903 5904 5906 5908 5909 5911 5912 5913 5914 5916 5917 5918 5919 5920 5921 5921 5922 5923 5924 5925 5926 5926 5927 5928 5929 5930 5930 5931 5932 5933 5934 5935 5936 5936 5937 5938 5939 5939 5940 5941 5941 5942 5943 5943 5944 5944 5944 5944 5944